Location: Central Falls
(41.8900°N, 71.3929°W)
Time: 14:47:09
(UTC+00:00)

Vanguard 1 - Pass Details

Date: 06 December 2023
Orbit: 653 x 3826 km, 34.3° (Epoch: 24 February)

Event Time Altitude Azimuth Distance (km) Brightness Sun altitude
Rises 21:32:00 0° 226° (SW) 5,066 15.5 -3.7°
Reaches altitude 10° 21:34:54 10° 220° (SW) 4,416 14.7 -4.2°
Maximum altitude 21:47:27 50° 150° (SSE) 3,438 12.8 -6.3°
Drops below altitude 10° 22:07:39 10° 84° (E) 6,843 13.7 -9.7°
Enters shadow 22:08:36 - 83° (E) 7,029 13.8 -9.9°
Sets 22:13:31 0° 80° (E) 7,967 - -10.8°
